Time,TemperatureF,DewpointF,PressureIn,WindDirection,WindDirectionDegrees,WindSpeedMPH,WindSpeedGustMPH,Humidity,HourlyPrecipIn,Conditions,Clouds,dailyrainin,SoftwareType,DateUTC
2013-05-22 00:03:00,75.2,67.1,29.70,SSW,202,0.0,-999.0,76,-99.99,,,0.00,Acu-Link.com,2013-05-22 04:03:00,
2013-05-22 00:18:00,74.5,66.8,29.70,ESE,112,0.0,-999.0,77,-99.99,,,0.00,Acu-Link.com,2013-05-22 04:18:00,
2013-05-22 00:33:00,73.9,66.6,29.70,ESE,112,1.1,-999.0,78,-99.99,,,0.00,Acu-Link.com,2013-05-22 04:33:00,
2013-05-22 00:48:00,73.8,66.9,29.71,NE,45,0.0,-999.0,79,-99.99,,,0.00,Acu-Link.com,2013-05-22 04:48:00,
2013-05-22 01:04:00,73.2,66.3,29.71,NE,45,0.0,-999.0,79,-99.99,,,0.00,Acu-Link.com,2013-05-22 05:04:00,
2013-05-22 01:19:00,72.7,66.2,29.71,NE,45,0.0,-999.0,80,-99.99,,,0.00,Acu-Link.com,2013-05-22 05:19:00,
2013-05-22 01:34:00,72.3,66.1,29.72,NE,45,0.0,-999.0,81,-99.99,,,0.00,Acu-Link.com,2013-05-22 05:34:00,
2013-05-22 01:49:00,71.6,66.2,29.72,NE,45,0.0,-999.0,83,-99.99,,,0.00,Acu-Link.com,2013-05-22 05:49:00,
2013-05-22 02:05:00,71.1,65.7,29.72,NE,45,0.0,-999.0,83,-99.99,,,0.00,Acu-Link.com,2013-05-22 06:05:00,
2013-05-22 02:20:00,70.7,65.6,29.71,NE,45,0.0,-999.0,84,-99.99,,,0.00,Acu-Link.com,2013-05-22 06:20:00,
2013-05-22 02:35:00,70.3,65.6,29.71,NE,45,0.0,-999.0,85,-99.99,,,0.00,Acu-Link.com,2013-05-22 06:35:00,
2013-05-22 02:51:00,70.0,65.6,29.71,NE,45,0.0,-999.0,86,-99.99,,,0.00,Acu-Link.com,2013-05-22 06:51:00,
2013-05-22 03:06:00,69.8,65.4,29.71,NE,45,0.0,-999.0,86,-99.99,,,0.00,Acu-Link.com,2013-05-22 07:06:00,
2013-05-22 03:21:00,69.4,65.4,29.71,NE,45,0.0,-999.0,87,-99.99,,,0.00,Acu-Link.com,2013-05-22 07:21:00,
2013-05-22 03:37:00,69.3,65.3,29.71,NE,45,0.0,-999.0,87,-99.99,,,0.00,Acu-Link.com,2013-05-22 07:37:00,
2013-05-22 03:52:00,68.9,65.2,29.70,NE,45,0.0,-999.0,88,-99.99,,,0.00,Acu-Link.com,2013-05-22 07:52:00,
2013-05-22 04:11:00,68.7,65.0,29.71,NE,45,0.0,-999.0,88,-99.99,,,0.00,Acu-Link.com,2013-05-22 08:11:00,
2013-05-22 04:26:00,68.4,65.0,29.71,NE,45,0.0,-999.0,89,-99.99,,,0.00,Acu-Link.com,2013-05-22 08:26:00,
2013-05-22 04:41:00,68.2,64.8,29.70,NE,45,0.0,-999.0,89,-99.99,,,0.00,Acu-Link.com,2013-05-22 08:41:00,
2013-05-22 04:56:00,68.0,64.6,29.70,NE,45,0.0,-999.0,89,-99.99,,,0.00,Acu-Link.com,2013-05-22 08:56:00,
2013-05-22 05:12:00,67.8,64.8,29.70,NE,45,0.0,-999.0,90,-99.99,,,0.00,Acu-Link.com,2013-05-22 09:12:00,
2013-05-22 05:27:00,67.3,64.3,29.71,NE,45,0.0,-999.0,90,-99.99,,,0.00,Acu-Link.com,2013-05-22 09:27:00,
2013-05-22 05:42:00,66.9,63.9,29.71,NE,45,0.0,-999.0,90,-99.99,,,0.00,Acu-Link.com,2013-05-22 09:42:00,
2013-05-22 05:57:00,66.4,63.7,29.72,NE,45,0.0,-999.0,91,-99.99,,,0.00,Acu-Link.com,2013-05-22 09:57:00,
2013-05-22 06:12:00,66.2,63.5,29.73,NE,45,0.0,-999.0,91,-99.99,,,0.00,Acu-Link.com,2013-05-22 10:12:00,
2013-05-22 06:28:00,66.0,63.3,29.73,NE,45,0.0,-999.0,91,-99.99,,,0.00,Acu-Link.com,2013-05-22 10:28:00,
2013-05-22 06:43:00,66.2,63.8,29.73,NE,45,0.0,-999.0,92,-99.99,,,0.00,Acu-Link.com,2013-05-22 10:43:00,
2013-05-22 06:58:00,66.7,64.3,29.73,NE,45,0.0,-999.0,92,-99.99,,,0.00,Acu-Link.com,2013-05-22 10:58:00,
2013-05-22 07:14:00,67.5,65.1,29.74,NE,45,0.0,-999.0,92,-99.99,,,0.00,Acu-Link.com,2013-05-22 11:14:00,
2013-05-22 07:29:00,68.4,66.0,29.74,NE,45,0.0,-999.0,92,-99.99,,,0.00,Acu-Link.com,2013-05-22 11:29:00,
2013-05-22 07:44:00,69.3,66.6,29.74,ESE,112,0.0,-999.0,91,-99.99,,,0.00,Acu-Link.com,2013-05-22 11:44:00,
2013-05-22 07:59:00,70.7,67.6,29.74,West,270,0.0,-999.0,90,-99.99,,,0.00,Acu-Link.com,2013-05-22 11:59:00,
2013-05-22 08:15:00,72.1,68.3,29.75,West,270,0.0,-999.0,88,-99.99,,,0.00,Acu-Link.com,2013-05-22 12:15:00,
2013-05-22 08:30:00,74.1,68.9,29.75,SSE,157,0.0,-999.0,84,-99.99,,,0.00,Acu-Link.com,2013-05-22 12:30:00,
2013-05-22 08:45:00,75.7,70.2,29.75,West,270,0.0,-999.0,83,-99.99,,,0.00,Acu-Link.com,2013-05-22 12:45:00,
2013-05-22 09:01:00,77.5,70.8,29.75,WNW,292,0.0,-999.0,80,-99.99,,,0.00,Acu-Link.com,2013-05-22 13:01:00,
2013-05-22 09:16:00,78.8,71.7,29.75,NNW,337,1.7,-999.0,79,-99.99,,,0.00,Acu-Link.com,2013-05-22 13:16:00,
2013-05-22 09:31:00,78.8,71.0,29.75,NW,315,2.2,-999.0,77,-99.99,,,0.00,Acu-Link.com,2013-05-22 13:31:00,
2013-05-22 09:47:00,78.8,71.3,29.75,SW,225,1.7,-999.0,78,-99.99,,,0.00,Acu-Link.com,2013-05-22 13:47:00,
2013-05-22 10:02:00,79.3,71.1,29.76,WNW,292,1.7,-999.0,76,-99.99,,,0.00,Acu-Link.com,2013-05-22 14:02:00,
2013-05-22 10:17:00,79.9,70.9,29.76,West,270,2.7,-999.0,74,-99.99,,,0.00,Acu-Link.com,2013-05-22 14:17:00,
2013-05-22 10:33:00,79.7,68.6,29.74,SSE,157,1.1,-999.0,69,-99.99,,,0.00,Acu-Link.com,2013-05-22 14:33:00,
2013-05-22 10:48:00,80.8,67.5,29.75,South,180,1.1,-999.0,64,-99.99,,,0.00,Acu-Link.com,2013-05-22 14:48:00,
2013-05-22 11:03:00,82.9,68.0,29.74,West,270,3.2,-999.0,61,-99.99,,,0.00,Acu-Link.com,2013-05-22 15:03:00,
2013-05-22 11:18:00,84.4,68.0,29.75,SSW,202,1.1,-999.0,58,-99.99,,,0.00,Acu-Link.com,2013-05-22 15:18:00,
2013-05-22 11:33:00,83.8,66.9,29.74,SSE,157,1.1,-999.0,57,-99.99,,,0.00,Acu-Link.com,2013-05-22 15:33:00,
2013-05-22 11:49:00,86.7,68.0,29.74,SW,225,1.7,-999.0,54,-99.99,,,0.00,Acu-Link.com,2013-05-22 15:49:00,
2013-05-22 12:04:00,88.9,67.8,29.72,ESE,112,2.7,-999.0,50,-99.99,,,0.00,Acu-Link.com,2013-05-22 16:04:00,
2013-05-22 12:19:00,88.5,65.7,29.72,WSW,247,1.7,-999.0,47,-99.99,,,0.00,Acu-Link.com,2013-05-22 16:19:00,
2013-05-22 12:34:00,88.9,66.6,29.71,SE,135,1.7,-999.0,48,-99.99,,,0.00,Acu-Link.com,2013-05-22 16:34:00,
2013-05-22 12:50:00,88.9,67.2,29.71,WSW,247,2.7,-999.0,49,-99.99,,,0.00,Acu-Link.com,2013-05-22 16:50:00,
2013-05-22 13:05:00,88.7,68.2,29.71,South,180,1.7,-999.0,51,-99.99,,,0.00,Acu-Link.com,2013-05-22 17:05:00,
2013-05-22 13:20:00,88.5,67.5,29.70,WSW,247,1.7,-999.0,50,-99.99,,,0.00,Acu-Link.com,2013-05-22 17:20:00,
2013-05-22 13:35:00,89.8,68.1,29.70,SW,225,2.2,-999.0,49,-99.99,,,0.00,Acu-Link.com,2013-05-22 17:35:00,
2013-05-22 13:51:00,90.7,67.0,29.69,West,270,3.7,-999.0,46,-99.99,,,0.00,Acu-Link.com,2013-05-22 17:51:00,
2013-05-22 14:06:00,89.8,66.8,29.68,ESE,112,1.1,-999.0,47,-99.99,,,0.00,Acu-Link.com,2013-05-22 18:06:00,
2013-05-22 14:21:00,92.5,66.7,29.67,SSW,202,1.7,-999.0,43,-99.99,,,0.00,Acu-Link.com,2013-05-22 18:21:00,
2013-05-22 14:36:00,90.5,65.6,29.67,NE,45,1.7,-999.0,44,-99.99,,,0.00,Acu-Link.com,2013-05-22 18:36:00,
2013-05-22 14:52:00,91.4,66.4,29.67,West,270,2.2,-999.0,44,-99.99,,,0.00,Acu-Link.com,2013-05-22 18:52:00,
2013-05-22 15:07:00,91.4,65.7,29.66,North,0,1.1,-999.0,43,-99.99,,,0.00,Acu-Link.com,2013-05-22 19:07:00,
2013-05-22 15:22:00,92.3,65.8,29.66,SE,135,2.2,-999.0,42,-99.99,,,0.00,Acu-Link.com,2013-05-22 19:22:00,
2013-05-22 15:38:00,91.9,66.2,29.66,SSW,202,3.2,-999.0,43,-99.99,,,0.00,Acu-Link.com,2013-05-22 19:38:00,
2013-05-22 15:53:00,92.5,66.0,29.64,WSW,247,0.0,-999.0,42,-99.99,,,0.00,Acu-Link.com,2013-05-22 19:53:00,
2013-05-22 16:08:00,92.7,65.5,29.64,SSW,202,2.2,-999.0,41,-99.99,,,0.00,Acu-Link.com,2013-05-22 20:08:00,
2013-05-22 16:24:00,91.6,66.6,29.63,West,270,2.2,-999.0,44,-99.99,,,0.00,Acu-Link.com,2013-05-22 20:24:00,
2013-05-22 16:39:00,92.5,68.0,29.62,WSW,247,1.7,-999.0,45,-99.99,,,0.00,Acu-Link.com,2013-05-22 20:39:00,
2013-05-22 16:54:00,91.8,68.0,29.62,SW,225,1.7,-999.0,46,-99.99,,,0.00,Acu-Link.com,2013-05-22 20:54:00,
2013-05-22 17:10:00,95.5,68.0,29.62,WNW,292,1.7,-999.0,41,-99.99,,,0.00,Acu-Link.com,2013-05-22 21:10:00,
2013-05-22 17:25:00,93.6,67.0,29.61,ESE,112,1.7,-999.0,42,-99.99,,,0.00,Acu-Link.com,2013-05-22 21:25:00,
2013-05-22 17:40:00,91.9,67.5,29.61,ESE,112,1.7,-999.0,45,-99.99,,,0.00,Acu-Link.com,2013-05-22 21:40:00,
2013-05-22 17:55:00,90.7,67.0,29.61,SW,225,0.0,-999.0,46,-99.99,,,0.00,Acu-Link.com,2013-05-22 21:55:00,
2013-05-22 18:10:00,89.8,66.8,29.61,SSE,157,1.7,-999.0,47,-99.99,,,0.00,Acu-Link.com,2013-05-22 22:10:00,
2013-05-22 18:26:00,88.7,66.4,29.62,WSW,247,1.1,-999.0,48,-99.99,,,0.00,Acu-Link.com,2013-05-22 22:26:00,
2013-05-22 18:41:00,88.0,66.4,29.60,South,180,1.7,-999.0,49,-99.99,,,0.00,Acu-Link.com,2013-05-22 22:41:00,
2013-05-22 18:56:00,86.9,66.0,29.61,South,180,1.7,-999.0,50,-99.99,,,0.00,Acu-Link.com,2013-05-22 22:56:00,
2013-05-22 19:12:00,85.5,65.8,29.62,South,180,0.0,-999.0,52,-99.99,,,0.00,Acu-Link.com,2013-05-22 23:12:00,
2013-05-22 19:27:00,84.9,65.8,29.64,SW,225,0.0,-999.0,53,-99.99,,,0.00,Acu-Link.com,2013-05-22 23:27:00,
2013-05-22 19:42:00,82.4,63.5,29.65,WSW,247,2.7,-999.0,53,-99.99,,,0.00,Acu-Link.com,2013-05-22 23:42:00,
2013-05-22 19:58:00,77.4,61.9,29.69,West,270,3.7,-999.0,59,-99.99,,,0.00,Acu-Link.com,2013-05-22 23:58:00,
2013-05-22 20:13:00,71.4,63.4,29.73,West,270,7.3,-999.0,76,-99.99,,,0.01,Acu-Link.com,2013-05-23 00:13:00,
2013-05-22 20:28:00,67.6,63.6,29.75,NNW,337,1.1,-999.0,87,-99.99,,,0.42,Acu-Link.com,2013-05-23 00:28:00,
2013-05-22 20:44:00,67.3,64.3,29.76,ENE,67,0.0,-999.0,90,-99.99,,,0.57,Acu-Link.com,2013-05-23 00:44:00,
2013-05-22 20:59:00,66.9,64.2,29.74,ENE,67,1.7,-999.0,91,-99.99,,,0.68,Acu-Link.com,2013-05-23 00:59:00,
2013-05-22 21:14:00,66.6,63.9,29.74,ESE,112,2.2,-999.0,91,-99.99,,,0.73,Acu-Link.com,2013-05-23 01:14:00,
2013-05-22 21:29:00,66.4,64.0,29.74,ESE,112,1.1,-999.0,92,-99.99,,,0.77,Acu-Link.com,2013-05-23 01:29:00,
2013-05-22 21:45:00,66.2,63.8,29.75,ESE,112,0.0,-999.0,92,-99.99,,,0.80,Acu-Link.com,2013-05-23 01:45:00,
2013-05-22 22:00:00,66.2,64.1,29.76,ESE,112,0.0,-999.0,93,-99.99,,,0.83,Acu-Link.com,2013-05-23 02:00:00,
2013-05-22 22:15:00,65.8,63.7,29.75,ESE,112,0.0,-999.0,93,-99.99,,,0.85,Acu-Link.com,2013-05-23 02:15:00,
2013-05-22 22:30:00,65.8,63.7,29.75,ESE,112,0.0,-999.0,93,-99.99,,,0.86,Acu-Link.com,2013-05-23 02:30:00,
2013-05-22 22:46:00,65.7,63.6,29.75,ESE,112,0.0,-999.0,93,-99.99,,,0.86,Acu-Link.com,2013-05-23 02:46:00,
2013-05-22 23:01:00,65.7,63.6,29.73,NE,45,0.0,-999.0,93,-99.99,,,0.87,Acu-Link.com,2013-05-23 03:01:00,
2013-05-22 23:16:00,65.5,63.4,29.73,ESE,112,1.1,-999.0,93,-99.99,,,0.87,Acu-Link.com,2013-05-23 03:16:00,
2013-05-22 23:32:00,65.5,63.4,29.74,ESE,112,0.0,-999.0,93,-99.99,,,0.87,Acu-Link.com,2013-05-23 03:32:00,
2013-05-22 23:47:00,65.3,63.2,29.73,ESE,112,0.0,-999.0,93,-99.99,,,0.87,Acu-Link.com,2013-05-23 03:47:00,